,,Stat5,,Stat1,,Stat2,,Stat3,,Stat4,,Wind1,,Wind1,
time,status,PA1M_AVG,status,PR1M_SUM,status,RH1M_AVG,status,SR1M_AVG,status,TA1M_AVG,status,W1dAve1m,status,W1sAve1m,
2002-09-21, 00:00:00,VALID,918.885,VALID,0,VALID,99.0529,VALID,-0.0849042,VALID,19.4885,VALID,54,VALID,0.498355,
2002-09-21, 00:01:00,VALID,918.88,VALID,0,VALID,98.9868,VALID,-0.0679233,VALID,19.4272,VALID,38,VALID,0.990785,
2002-09-21, 00:02:00,VALID,918.855,VALID,0,VALID,98.9461,VALID,-0.0849042,VALID,19.3593,VALID,33,VALID,1.37479,
2002-09-21, 00:03:00,VALID,918.841,VALID,0,VALID,98.9639,VALID,-0.101885,VALID,19.3206,VALID,31,VALID,1.29585,
2002-09-21, 00:04:00,VALID,918.809,VALID,0,VALID,99.0783,VALID,-0.0849042,VALID,19.3203,VALID,35,VALID,1.06307,
2002-09-21, 00:05:00,VALID,918.789,VALID,0,VALID,99.1267,VALID,-0.0849042,VALID,19.3564,VALID,42,VALID,0.960093,
2002-09-21, 00:06:00,VALID,918.773,VALID,0,VALID,99.1826,VALID,-0.0849042,VALID,19.3983,VALID,50,VALID,0.866787,
2002-09-21, 00:07:00,VALID,918.754,VALID,0,VALID,99.1966,VALID,-0.101885,VALID,19.4011,VALID,44,VALID,0.933694,
2002-09-21, 00:08:00,VALID,918.75,VALID,0,VALID,99.2233,VALID,-0.0509425,VALID,19.4433,VALID,51,VALID,0.5294,
2002-09-21, 00:09:00,VALID,918.745,VALID,0,VALID,99.2284,VALID,-0.101885,VALID,19.45,VALID,51,VALID,0.654154,
2002-09-21, 00:10:00,VALID,918.73,VALID,0,VALID,99.2449,VALID,-0.0849042,VALID,19.4624,VALID,52,VALID,0.577123,
2002-09-21, 00:11:00,VALID,918.704,VALID,0,VALID,99.25,VALID,-0.0849042,VALID,19.4652,VALID,56,VALID,0.392188,
2002-09-21, 00:12:00,VALID,918.68,VALID,0,VALID,99.2513,VALID,-0.0509425,VALID,19.4692,VALID,70,VALID,0.548478,
2002-09-21, 00:13:00,VALID,918.664,VALID,0,VALID,99.25,VALID,-0.0509425,VALID,19.4721,VALID,70,VALID,0.660061,
2002-09-21, 00:14:00,VALID,918.642,VALID,0,VALID,99.2564,VALID,-0.0679233,VALID,19.4883,VALID,70,VALID,0.62859,
2002-09-21, 00:15:00,VALID,918.622,VALID,0,VALID,99.2525,VALID,-0.0679233,VALID,19.4913,VALID,77,VALID,0.59355,
2002-09-21, 00:16:00,VALID,918.603,VALID,0,VALID,99.2487,VALID,-0.0849042,VALID,19.4821,VALID,89,VALID,0.725,
2002-09-21, 00:17:00,VALID,918.588,VALID,0,VALID,99.2551,VALID,-0.0679233,VALID,19.4813,VALID,106,VALID,0.504001,
2002-09-21, 00:18:00,VALID,918.57,VALID,0,VALID,99.2704,VALID,-0.0339617,VALID,19.4977,VALID,136,VALID,0.572173,
2002-09-21, 00:19:00,VALID,918.56,VALID,0,VALID,99.292,VALID,-0.0509425,VALID,19.5268,VALID,120,VALID,0.566723,
2002-09-21, 00:20:00,VALID,918.535,VALID,0,VALID,99.306,VALID,-0.0339617,VALID,19.5531,VALID,144,VALID,0.599085,
2002-09-21, 00:21:00,VALID,918.509,VALID,0,VALID,99.3136,VALID,-0.0849042,VALID,19.5887,VALID,144,VALID,0.883194,
2002-09-21, 00:22:00,VALID,918.483,VALID,0,VALID,99.3263,VALID,-0.101885,VALID,19.6108,VALID,140,VALID,0.605785,
2002-09-21, 00:23:00,VALID,918.447,VALID,0,VALID,99.3339,VALID,-0.0679233,VALID,19.6371,VALID,124,VALID,0.809375,
2002-09-21, 00:24:00,VALID,918.411,VALID,0,VALID,99.3238,VALID,-0.0509425,VALID,19.6401,VALID,105,VALID,0.831473,
2002-09-21, 00:25:00,VALID,918.361,VALID,0,VALID,99.311,VALID,-0.0849042,VALID,19.621,VALID,113,VALID,0.652902,
2002-09-21, 00:26:00,VALID,918.342,VALID,0,VALID,99.311,VALID,-0.0849042,VALID,19.6147,VALID,129,VALID,0.857366,
2002-09-21, 00:27:00,VALID,918.318,VALID,0,VALID,99.3136,VALID,-0.101885,VALID,19.6175,VALID,140,VALID,0.896959,
2002-09-21, 00:28:00,VALID,918.29,VALID,0,VALID,99.3149,VALID,-0.0679233,VALID,19.6379,VALID,140,VALID,0.655428,
2002-09-21, 00:29:00,VALID,918.257,VALID,0,VALID,99.3212,VALID,-0.0679233,VALID,19.6403,VALID,146,VALID,0.819046,
2002-09-21, 00:30:00,VALID,918.24,VALID,0,VALID,99.3238,VALID,-0.0679233,VALID,19.6468,VALID,144,VALID,0.805921,
2002-09-21, 00:31:00,VALID,918.231,VALID,0,VALID,99.3161,VALID,-0.0849042,VALID,19.6341,VALID,154,VALID,0.675987,
2002-09-21, 00:32:00,VALID,918.225,VALID,0,VALID,99.3098,VALID,-0.0679233,VALID,19.6138,VALID,170,VALID,0.554297,
2002-09-21, 00:33:00,VALID,918.22,VALID,0,VALID,99.306,VALID,0,VALID,19.6006,VALID,171,VALID,0.11443,
2002-09-21, 00:34:00,VALID,918.232,VALID,0,VALID,99.3021,VALID,0,VALID,19.5777,VALID,171,VALID,0.04375,
2002-09-21, 00:35:00,VALID,918.236,VALID,0,VALID,99.3149,VALID,0,VALID,19.5882,VALID,171,VALID,0,
2002-09-21, 00:36:00,VALID,918.255,VALID,0,VALID,99.3085,VALID,-0.0169808,VALID,19.5847,VALID,171,VALID,0,
2002-09-21, 00:37:00,VALID,918.273,VALID,0,VALID,99.3136,VALID,0,VALID,19.5912,VALID,171,VALID,0,
2002-09-21, 00:38:00,VALID,918.286,VALID,0,VALID,99.3123,VALID,-0.0169808,VALID,19.5688,VALID,171,VALID,0,
2002-09-21, 00:39:00,VALID,918.3,VALID,0,VALID,99.306,VALID,-0.0169808,VALID,19.5556,VALID,171,VALID,0,
2002-09-21, 00:40:00,VALID,918.318,VALID,0,VALID,99.292,VALID,0,VALID,19.5564,VALID,171,VALID,0,
2002-09-21, 00:41:00,VALID,918.32,VALID,0,VALID,99.2894,VALID,-0.0169808,VALID,19.5333,VALID,167,VALID,0.0180288,
2002-09-21, 00:42:00,VALID,918.32,VALID,0,VALID,99.2932,VALID,0,VALID,19.527,VALID,46,VALID,0.547105,
2002-09-21, 00:43:00,VALID,918.329,VALID,0,VALID,99.278,VALID,0,VALID,19.4585,VALID,27,VALID,0.874023,
2002-09-21, 00:44:00,VALID,918.333,VALID,0,VALID,99.2297,VALID,0,VALID,19.3849,VALID,12,VALID,1.1666,
2002-09-21, 00:45:00,VALID,918.343,VALID,0,VALID,99.2208,VALID,-0.0339617,VALID,19.3496,VALID,6,VALID,0.551953,
2002-09-21, 00:46:00,VALID,918.334,VALID,0,VALID,99.2411,VALID,-0.0339617,VALID,19.3303,VALID,353,VALID,0.614784,
2002-09-21, 00:47:00,VALID,918.3,VALID,0,VALID,99.2754,VALID,-0.0849042,VALID,19.3171,VALID,345,VALID,0.604421,
2002-09-21, 00:48:00,VALID,918.281,VALID,0,VALID,99.2996,VALID,0,VALID,19.3233,VALID,339,VALID,0.352829,
2002-09-21, 00:49:00,VALID,918.245,VALID,0,VALID,99.3136,VALID,-0.0169808,VALID,19.3501,VALID,323,VALID,0.458534,
2002-09-21, 00:50:00,VALID,918.219,VALID,0,VALID,99.3327,VALID,-0.0509425,VALID,19.3496,VALID,316,VALID,0.3125,
2002-09-21, 00:51:00,VALID,918.202,VALID,0,VALID,99.3556,VALID,-0.0509425,VALID,19.3951,VALID,221,VALID,0.224301,
2002-09-21, 00:52:00,VALID,918.203,VALID,0,VALID,99.3746,VALID,-0.0169808,VALID,19.4242,VALID,221,VALID,0.0855369,
2002-09-21, 00:53:00,VALID,918.215,VALID,0,VALID,99.381,VALID,-0.0509425,VALID,19.4401,VALID,221,VALID,0.0658203,
2002-09-21, 00:54:00,VALID,918.222,VALID,0,VALID,99.3873,VALID,-0.0509425,VALID,19.4657,VALID,225,VALID,0.000200321,
2002-09-21, 00:55:00,VALID,918.241,VALID,0,VALID,99.3912,VALID,-0.0169808,VALID,19.4913,VALID,334,VALID,0.215625,
2002-09-21, 00:56:00,VALID,918.263,VALID,0,VALID,99.3924,VALID,-0.0679233,VALID,19.5109,VALID,355,VALID,0.338141,
2002-09-21, 00:57:00,VALID,918.264,VALID,0,VALID,99.3962,VALID,-0.0679233,VALID,19.5308,VALID,19,VALID,0.807736,
2002-09-21, 00:58:00,VALID,918.242,VALID,0,VALID,99.4077,VALID,-0.0679233,VALID,19.5469,VALID,25,VALID,0.820313,
2002-09-21, 00:59:00,VALID,918.214,VALID,0,VALID,99.4013,VALID,-0.0509425,VALID,19.5591,VALID,19,VALID,0.635074,
2002-09-21, 01:00:00,VALID,918.194,VALID,0,VALID,99.4064,VALID,0,VALID,19.5494,VALID,18,VALID,0.571368,
2002-09-21, 01:01:00,VALID,918.18,VALID,0,VALID,99.4039,VALID,-0.0169808,VALID,19.5596,VALID,18,VALID,0.220228,
2002-09-21, 01:02:00,VALID,918.182,VALID,0,VALID,99.3937,VALID,-0.0339617,VALID,19.5658,VALID,18,VALID,0.0769817,
2002-09-21, 01:03:00,VALID,918.19,VALID,0,VALID,99.4026,VALID,-0.0339617,VALID,19.5752,VALID,26,VALID,0.301809,
2002-09-21, 01:04:00,VALID,918.188,VALID,0,VALID,99.3899,VALID,-0.0509425,VALID,19.5849,VALID,37,VALID,0.174959,
2002-09-21, 01:05:00,VALID,918.195,VALID,0,VALID,99.3924,VALID,-0.0169808,VALID,19.5718,VALID,37,VALID,0.158637,
2002-09-21, 01:06:00,VALID,918.183,VALID,0,VALID,99.395,VALID,-0.0169808,VALID,19.5815,VALID,82,VALID,0.263086,
2002-09-21, 01:07:00,VALID,918.17,VALID,0,VALID,99.3797,VALID,-0.0169808,VALID,19.569,VALID,116,VALID,0.25217,
2002-09-21, 01:08:00,VALID,918.164,VALID,0,VALID,99.3657,VALID,-0.0339617,VALID,19.5427,VALID,93,VALID,0.0835337,
2002-09-21, 01:09:00,VALID,918.155,VALID,0,VALID,99.3848,VALID,-0.0169808,VALID,19.5459,VALID,40,VALID,0.776172,
2002-09-21, 01:10:00,VALID,918.155,VALID,0,VALID,99.3797,VALID,-0.0339617,VALID,19.5494,VALID,39,VALID,0.839543,
2002-09-21, 01:11:00,VALID,918.157,VALID,0,VALID,99.3823,VALID,0,VALID,19.5626,VALID,47,VALID,0.736378,
2002-09-21, 01:12:00,VALID,918.161,VALID,0,VALID,99.3861,VALID,-0.0169808,VALID,19.5464,VALID,42,VALID,0.751478,
2002-09-21, 01:13:00,VALID,918.174,VALID,0,VALID,99.3746,VALID,-0.0169808,VALID,19.5335,VALID,29,VALID,0.664453,
2002-09-21, 01:14:00,VALID,918.193,VALID,0,VALID,99.3873,VALID,-0.0169808,VALID,19.5395,VALID,26,VALID,0.395898,
2002-09-21, 01:15:00,VALID,918.205,VALID,0,VALID,99.3937,VALID,0,VALID,19.5524,VALID,26,VALID,0.250617,
2002-09-21, 01:16:00,VALID,918.219,VALID,0,VALID,99.3784,VALID,-0.0339617,VALID,19.5623,VALID,26,VALID,0.670218,
2002-09-21, 01:17:00,VALID,918.256,VALID,0,VALID,99.3861,VALID,-0.0169808,VALID,19.53,VALID,13,VALID,0.488477,
2002-09-21, 01:18:00,VALID,918.281,VALID,0,VALID,99.3772,VALID,-0.0169808,VALID,19.5107,VALID,10,VALID,0.0170272,
2002-09-21, 01:19:00,VALID,918.291,VALID,0,VALID,99.3721,VALID,0,VALID,19.4684,VALID,10,VALID,0,
2002-09-21, 01:20:00,VALID,918.302,VALID,0,VALID,99.3683,VALID,0,VALID,19.4398,VALID,10,VALID,0,
2002-09-21, 01:21:00,VALID,918.309,VALID,0,VALID,99.3823,VALID,-0.0169808,VALID,19.4297,VALID,10,VALID,0.0560213,
2002-09-21, 01:22:00,VALID,918.312,VALID,0,VALID,99.3746,VALID,0,VALID,19.4232,VALID,10,VALID,0,
2002-09-21, 01:23:00,VALID,918.306,VALID,0,VALID,99.3708,VALID,-0.0169808,VALID,19.4234,VALID,10,VALID,0,
2002-09-21, 01:24:00,VALID,918.303,VALID,0,VALID,99.3823,VALID,0,VALID,19.4361,VALID,10,VALID,0,
2002-09-21, 01:25:00,VALID,918.311,VALID,0,VALID,99.3937,VALID,0,VALID,19.452,VALID,10,VALID,0.0594512,
2002-09-21, 01:26:00,VALID,918.329,VALID,0,VALID,99.3924,VALID,-0.0169808,VALID,19.4719,VALID,10,VALID,0.0345982,
2002-09-21, 01:27:00,VALID,918.342,VALID,0,VALID,99.3924,VALID,0,VALID,19.4851,VALID,47,VALID,0.170608,
2002-09-21, 01:28:00,VALID,918.35,VALID,0,VALID,99.3975,VALID,0.0169808,VALID,19.4687,VALID,100,VALID,0.349276,
2002-09-21, 01:29:00,VALID,918.355,VALID,0,VALID,99.3772,VALID,-0.0169808,VALID,19.449,VALID,110,VALID,0.373094,
2002-09-21, 01:30:00,VALID,918.361,VALID,0,VALID,99.381,VALID,-0.0169808,VALID,19.4329,VALID,115,VALID,0.44299,
2002-09-21, 01:31:00,VALID,918.364,VALID,0,VALID,99.3835,VALID,0,VALID,19.4369,VALID,124,VALID,0.673047,
2002-09-21, 01:32:00,VALID,918.376,VALID,0,VALID,99.3683,VALID,-0.0679233,VALID,19.3944,VALID,127,VALID,0.676786,
2002-09-21, 01:33:00,VALID,918.375,VALID,0,VALID,99.3772,VALID,-0.118866,VALID,19.4016,VALID,115,VALID,0.633036,
2002-09-21, 01:34:00,VALID,918.381,VALID,0,VALID,99.3784,VALID,-0.101885,VALID,19.3822,VALID,93,VALID,0.877009,
2002-09-21, 01:35:00,VALID,918.393,VALID,0,VALID,99.3784,VALID,-0.101885,VALID,19.3889,VALID,89,VALID,0.765414,
2002-09-21, 01:36:00,VALID,918.403,VALID,0,VALID,99.3861,VALID,-0.118866,VALID,19.4083,VALID,57,VALID,0.522821,
2002-09-21, 01:37:00,VALID,918.406,VALID,0,VALID,99.3924,VALID,-0.118866,VALID,19.4053,VALID,66,VALID,0.419764,
2002-09-21, 01:38:00,VALID,918.403,VALID,0,VALID,99.3823,VALID,-0.135847,VALID,19.4053,VALID,61,VALID,0.508635,
2002-09-21, 01:39:00,VALID,918.396,VALID,0,VALID,99.3823,VALID,-0.101885,VALID,19.3891,VALID,94,VALID,1.0442,
2002-09-21, 01:40:00,VALID,918.369,VALID,0,VALID,99.3734,VALID,-0.118866,VALID,19.3506,VALID,92,VALID,1.27285,
2002-09-21, 01:41:00,VALID,918.342,VALID,0,VALID,99.3644,VALID,-0.118866,VALID,19.3149,VALID,88,VALID,1.27688,
2002-09-21, 01:42:00,VALID,918.306,VALID,0,VALID,99.353,VALID,-0.135847,VALID,19.2922,VALID,89,VALID,1.23184,
2002-09-21, 01:43:00,VALID,918.289,VALID,0,VALID,99.3632,VALID,-0.118866,VALID,19.2823,VALID,97,VALID,1.3772,
2002-09-21, 01:44:00,VALID,918.26,VALID,0,VALID,99.3734,VALID,-0.101885,VALID,19.2791,VALID,65,VALID,0.853885,
2002-09-21, 01:45:00,VALID,918.265,VALID,0,VALID,99.3912,VALID,-0.101885,VALID,19.2853,VALID,83,VALID,0.735176,
2002-09-21, 01:46:00,VALID,918.259,VALID,0,VALID,99.3835,VALID,-0.101885,VALID,19.2955,VALID,87,VALID,0.8125,
2002-09-21, 01:47:00,VALID,918.265,VALID,0,VALID,99.3988,VALID,-0.0339617,VALID,19.2846,VALID,105,VALID,0.374599,
2002-09-21, 01:48:00,VALID,918.261,VALID,0,VALID,99.409,VALID,0,VALID,19.297,VALID,105,VALID,0.184832,
2002-09-21, 01:49:00,VALID,918.268,VALID,0,VALID,99.4191,VALID,-0.0509425,VALID,19.3067,VALID,89,VALID,0.315705,
2002-09-21, 01:50:00,VALID,918.267,VALID,0,VALID,99.4318,VALID,0,VALID,19.3199,VALID,88,VALID,0.201746,
2002-09-21, 01:51:00,VALID,918.27,VALID,0,VALID,99.4344,VALID,-0.0169808,VALID,19.3355,VALID,149,VALID,0.357227,
2002-09-21, 01:52:00,VALID,918.257,VALID,0,VALID,99.4242,VALID,0,VALID,19.3586,VALID,150,VALID,0.774916,
2002-09-21, 01:53:00,VALID,918.251,VALID,0,VALID,99.442,VALID,-0.0169808,VALID,19.375,VALID,136,VALID,0.85957,
2002-09-21, 01:54:00,VALID,918.236,VALID,0,VALID,99.4331,VALID,0,VALID,19.3681,VALID,123,VALID,0.635417,
2002-09-21, 01:55:00,VALID,918.216,VALID,0,VALID,99.4395,VALID,-0.0169808,VALID,19.3812,VALID,100,VALID,1.22447,
2002-09-21, 01:56:00,VALID,918.202,VALID,0,VALID,99.4344,VALID,-0.0169808,VALID,19.3844,VALID,102,VALID,1.24113,
2002-09-21, 01:57:00,VALID,918.182,VALID,0,VALID,99.4306,VALID,0,VALID,19.3849,VALID,106,VALID,1.49459,
2002-09-21, 01:58:00,VALID,918.181,VALID,0,VALID,99.4395,VALID,-0.0339617,VALID,19.3782,VALID,93,VALID,1.24924,
2002-09-21, 01:59:00,VALID,918.167,VALID,0,VALID,99.4357,VALID,0,VALID,19.3812,VALID,93,VALID,0.812294,
2002-09-21, 02:00:00,VALID,918.169,VALID,0,VALID,99.4458,VALID,-0.0339617,VALID,19.3748,VALID,110,VALID,1.13902,
2002-09-21, 02:01:00,VALID,918.172,VALID,0,VALID,99.4408,VALID,-0.0169808,VALID,19.3909,VALID,86,VALID,0.776953,
2002-09-21, 02:02:00,VALID,918.182,VALID,0,VALID,99.4382,VALID,0.0679233,VALID,19.3929,VALID,93,VALID,0.735777,
2002-09-21, 02:03:00,VALID,918.203,VALID,0,VALID,99.4496,VALID,0.0339617,VALID,19.4095,VALID,127,VALID,0.409375,
2002-09-21, 02:04:00,VALID,918.191,VALID,0,VALID,99.4408,VALID,0.0679233,VALID,19.4056,VALID,107,VALID,0.745192,
2002-09-21, 02:05:00,VALID,918.193,VALID,0,VALID,99.4408,VALID,0.101885,VALID,19.4061,VALID,102,VALID,0.489901,
2002-09-21, 02:06:00,VALID,918.198,VALID,0,VALID,99.4369,VALID,0.101885,VALID,19.4058,VALID,113,VALID,0.9483,
2002-09-21, 02:07:00,VALID,918.18,VALID,0,VALID,99.4369,VALID,0.0849042,VALID,19.3793,VALID,104,VALID,0.723479,
2002-09-21, 02:08:00,VALID,918.161,VALID,0,VALID,99.4408,VALID,0.101885,VALID,19.3961,VALID,103,VALID,0.633446,
2002-09-21, 02:09:00,VALID,918.148,VALID,0,VALID,99.4496,VALID,0.101885,VALID,19.376,VALID,90,VALID,1.03991,
2002-09-21, 02:10:00,VALID,918.147,VALID,0,VALID,99.4331,VALID,0.0679233,VALID,19.3671,VALID,79,VALID,0.712652,
2002-09-21, 02:11:00,VALID,918.142,VALID,0,VALID,99.4357,VALID,0.0849042,VALID,19.3703,VALID,76,VALID,0.697368,
2002-09-21, 02:12:00,VALID,918.154,VALID,0,VALID,99.4395,VALID,0.0679233,VALID,19.3701,VALID,71,VALID,0.831414,
2002-09-21, 02:13:00,VALID,918.167,VALID,0,VALID,99.4484,VALID,0.0509425,VALID,19.3775,VALID,64,VALID,0.683377,
2002-09-21, 02:14:00,VALID,918.17,VALID,0,VALID,99.4395,VALID,0.0679233,VALID,19.373,VALID,73,VALID,0.412891,
2002-09-21, 02:15:00,VALID,918.168,VALID,0,VALID,99.4446,VALID,0.101885,VALID,19.3703,VALID,75,VALID,0.0429688,
2002-09-21, 02:16:00,VALID,918.178,VALID,0,VALID,99.4496,VALID,0.0849042,VALID,19.3671,VALID,76,VALID,0,
2002-09-21, 02:17:00,VALID,918.133,VALID,0,VALID,99.4585,VALID,0.0169808,VALID,19.3775,VALID,158,VALID,0.426953,
2002-09-21, 02:18:00,VALID,918.124,VALID,0,VALID,99.4675,VALID,0,VALID,19.3949,VALID,165,VALID,0.348357,
2002-09-21, 02:19:00,VALID,918.089,VALID,0,VALID,99.4585,VALID,0,VALID,19.3879,VALID,155,VALID,0.34375,
2002-09-21, 02:20:00,VALID,918.069,VALID,0,VALID,99.4573,VALID,0,VALID,19.3782,VALID,171,VALID,0.53125,
2002-09-21, 02:21:00,VALID,918.042,VALID,0,VALID,99.4636,VALID,0,VALID,19.3817,VALID,170,VALID,0.72832,
2002-09-21, 02:22:00,VALID,918.016,VALID,0,VALID,99.4547,VALID,0,VALID,19.3651,VALID,171,VALID,0.485742,
2002-09-21, 02:23:00,VALID,918.01,VALID,0,VALID,99.4675,VALID,-0.0169808,VALID,19.3683,VALID,166,VALID,0.49486,
2002-09-21, 02:24:00,VALID,917.984,VALID,0,VALID,99.4675,VALID,0,VALID,19.3651,VALID,122,VALID,0.41714,
2002-09-21, 02:25:00,VALID,917.968,VALID,0,VALID,99.4675,VALID,-0.0169808,VALID,19.3551,VALID,133,VALID,0.899414,
2002-09-21, 02:26:00,VALID,917.946,VALID,0,VALID,99.4573,VALID,0,VALID,19.339,VALID,136,VALID,0.912059,
2002-09-21, 02:27:00,VALID,917.924,VALID,0,VALID,99.4624,VALID,0,VALID,19.3427,VALID,145,VALID,1.15703,
2002-09-21, 02:28:00,VALID,917.914,VALID,0,VALID,99.4585,VALID,0,VALID,19.3099,VALID,144,VALID,1.40885,
2002-09-21, 02:29:00,VALID,917.894,VALID,0,VALID,99.4547,VALID,-0.0169808,VALID,19.3074,VALID,153,VALID,1.40587,
2002-09-21, 02:30:00,VALID,917.892,VALID,0,VALID,99.4649,VALID,-0.0169808,VALID,19.3044,VALID,150,VALID,0.895904,
2002-09-21, 02:31:00,VALID,917.913,VALID,0,VALID,99.4598,VALID,-0.0509425,VALID,19.2908,VALID,147,VALID,1.09756,
2002-09-21, 02:32:00,VALID,917.907,VALID,0,VALID,99.4611,VALID,0.0509425,VALID,19.2801,VALID,152,VALID,1.55547,
2002-09-21, 02:33:00,VALID,917.912,VALID,0,VALID,99.4649,VALID,0.0849042,VALID,19.27,VALID,145,VALID,1.31669,
2002-09-21, 02:34:00,VALID,917.906,VALID,0,VALID,99.4649,VALID,0.0849042,VALID,19.2769,VALID,144,VALID,1.55692,
2002-09-21, 02:35:00,VALID,917.896,VALID,0,VALID,99.4624,VALID,0,VALID,19.2672,VALID,140,VALID,2.08932,
2002-09-21, 02:36:00,VALID,917.888,VALID,0,VALID,99.4636,VALID,0.0849042,VALID,19.2607,VALID,144,VALID,1.49752,
2002-09-21, 02:37:00,VALID,917.886,VALID,0,VALID,99.4662,VALID,0.0509425,VALID,19.2471,VALID,147,VALID,1.54154,
2002-09-21, 02:38:00,VALID,917.878,VALID,0,VALID,99.4687,VALID,0.0509425,VALID,19.2414,VALID,147,VALID,1.36972,
2002-09-21, 02:39:00,VALID,917.881,VALID,0,VALID,99.4611,VALID,0.0679233,VALID,19.2314,VALID,145,VALID,1.66426,
2002-09-21, 02:40:00,VALID,917.879,VALID,0,VALID,99.47,VALID,0.0849042,VALID,19.2287,VALID,147,VALID,1.76518,
2002-09-21, 02:41:00,VALID,917.876,VALID,0,VALID,99.4802,VALID,0.0679233,VALID,19.2218,VALID,146,VALID,1.45826,
2002-09-21, 02:42:00,VALID,917.889,VALID,0,VALID,99.4738,VALID,0.101885,VALID,19.2317,VALID,142,VALID,1.17143,
2002-09-21, 02:43:00,VALID,917.891,VALID,0,VALID,99.4814,VALID,0.101885,VALID,19.222,VALID,156,VALID,1.10895,
2002-09-21, 02:44:00,VALID,917.885,VALID,0,VALID,99.4687,VALID,0.0679233,VALID,19.2252,VALID,147,VALID,0.995683,
2002-09-21, 02:45:00,VALID,917.873,VALID,0,VALID,99.4776,VALID,0.0849042,VALID,19.228,VALID,155,VALID,1.40097,
2002-09-21, 02:46:00,VALID,917.856,VALID,0,VALID,99.4827,VALID,0.0849042,VALID,19.2255,VALID,140,VALID,1.49979,
2002-09-21, 02:47:00,VALID,917.832,VALID,0,VALID,99.4865,VALID,-0.0169808,VALID,19.2165,VALID,135,VALID,1.6729,
2002-09-21, 02:48:00,VALID,917.808,VALID,0,VALID,99.4764,VALID,-0.0509425,VALID,19.2205,VALID,138,VALID,1.86836,
2002-09-21, 02:49:00,VALID,917.792,VALID,0,VALID,99.4725,VALID,-0.0679233,VALID,19.2008,VALID,145,VALID,1.60041,
2002-09-21, 02:50:00,VALID,917.783,VALID,0,VALID,99.4776,VALID,-0.0169808,VALID,19.1941,VALID,144,VALID,1.77148,
2002-09-21, 02:51:00,VALID,917.77,VALID,0,VALID,99.4814,VALID,-0.0339617,VALID,19.2038,VALID,143,VALID,1.29307,
2002-09-21, 02:52:00,VALID,917.767,VALID,0,VALID,99.4878,VALID,0,VALID,19.1939,VALID,144,VALID,1.47002,
2002-09-21, 02:53:00,VALID,917.756,VALID,0,VALID,99.4942,VALID,-0.0339617,VALID,19.1941,VALID,137,VALID,1.78085,
2002-09-21, 02:54:00,VALID,917.739,VALID,0,VALID,99.484,VALID,-0.0169808,VALID,19.2008,VALID,155,VALID,1.72266,
2002-09-21, 02:55:00,VALID,917.735,VALID,0,VALID,99.4878,VALID,-0.0679233,VALID,19.1949,VALID,154,VALID,1.52143,
2002-09-21, 02:56:00,VALID,917.714,VALID,0,VALID,99.4903,VALID,-0.0339617,VALID,19.2013,VALID,150,VALID,1.74676,
2002-09-21, 02:57:00,VALID,917.696,VALID,0,VALID,99.4878,VALID,-0.0509425,VALID,19.1812,VALID,153,VALID,2.16627,
2002-09-21, 02:58:01,VALID,917.659,VALID,0,VALID,99.4827,VALID,-0.0509425,VALID,19.1782,VALID,152,VALID,1.3233,
2002-09-21, 02:59:00,VALID,917.635,VALID,0,VALID,99.4929,VALID,-0.0169808,VALID,19.175,VALID,161,VALID,1.11836,
2002-09-21, 03:00:00,VALID,917.612,VALID,0,VALID,99.484,VALID,-0.0169808,VALID,19.1685,VALID,151,VALID,1.13598,
2002-09-21, 03:01:00,VALID,917.604,VALID,0,VALID,99.4916,VALID,-0.0339617,VALID,19.1554,VALID,170,VALID,1.15078,
2002-09-21, 03:02:00,VALID,917.582,VALID,0,VALID,99.4916,VALID,-0.0339617,VALID,19.1524,VALID,171,VALID,0.936298,
2002-09-21, 03:03:01,VALID,917.576,VALID,0,VALID,99.4878,VALID,-0.0509425,VALID,19.1397,VALID,151,VALID,1.14901,
2002-09-21, 03:04:00,VALID,917.579,VALID,0,VALID,99.4827,VALID,-0.0169808,VALID,19.1296,VALID,156,VALID,0.718328,
2002-09-21, 03:05:00,VALID,917.577,VALID,0,VALID,99.4853,VALID,-0.0509425,VALID,19.1196,VALID,148,VALID,1.38301,
2002-09-21, 03:06:00,VALID,917.591,VALID,0,VALID,99.4903,VALID,0,VALID,19.1263,VALID,147,VALID,1.82965,
2002-09-21, 03:07:01,VALID,917.581,VALID,0,VALID,99.4903,VALID,-0.0509425,VALID,19.1298,VALID,142,VALID,1.62747,
2002-09-21, 03:08:00,VALID,917.576,VALID,0,VALID,99.498,VALID,0,VALID,19.1229,VALID,147,VALID,1.63822,
2002-09-21, 03:09:00,VALID,917.546,VALID,0,VALID,99.4916,VALID,-0.0849042,VALID,19.1199,VALID,145,VALID,1.55293,
2002-09-21, 03:10:00,VALID,917.521,VALID,0,VALID,99.4942,VALID,-0.0509425,VALID,19.1367,VALID,138,VALID,1.56991,
2002-09-21, 03:11:00,VALID,917.491,VALID,0,VALID,99.4916,VALID,-0.0169808,VALID,19.1201,VALID,145,VALID,1.88828,
2002-09-21, 03:12:00,VALID,917.465,VALID,0,VALID,99.4853,VALID,-0.0169808,VALID,19.1266,VALID,146,VALID,1.46955,
2002-09-21, 03:13:00,VALID,917.471,VALID,0,VALID,99.4853,VALID,-0.0509425,VALID,19.1365,VALID,134,VALID,1.76467,
2002-09-21, 03:14:00,VALID,917.464,VALID,0,VALID,99.4649,VALID,-0.0339617,VALID,19.1268,VALID,135,VALID,1.45749,
2002-09-21, 03:15:00,VALID,917.478,VALID,0,VALID,99.4624,VALID,-0.0509425,VALID,19.127,VALID,147,VALID,1.81373,
2002-09-21, 03:16:00,VALID,917.469,VALID,0,VALID,99.4573,VALID,-0.0169808,VALID,19.1171,VALID,139,VALID,1.88619,
2002-09-21, 03:17:00,VALID,917.472,VALID,0,VALID,99.4471,VALID,0.0509425,VALID,19.1261,VALID,144,VALID,2,
2002-09-21, 03:18:00,VALID,917.469,VALID,0,VALID,99.4535,VALID,0.0849042,VALID,19.1256,VALID,148,VALID,1.97237,
2002-09-21, 03:19:00,VALID,917.47,VALID,0,VALID,99.4446,VALID,0.0849042,VALID,19.1124,VALID,142,VALID,2.00617,
2002-09-21, 03:20:01,VALID,917.458,VALID,0,VALID,99.4306,VALID,0.0509425,VALID,19.1258,VALID,147,VALID,1.94367,
2002-09-21, 03:21:00,VALID,917.433,VALID,0,VALID,99.414,VALID,0.0509425,VALID,19.1129,VALID,142,VALID,1.49219,
2002-09-21, 03:22:00,VALID,917.405,VALID,0,VALID,99.4179,VALID,0.0679233,VALID,19.0993,VALID,145,VALID,1.53828,
2002-09-21, 03:23:00,VALID,917.374,VALID,0,VALID,99.4115,VALID,0.0339617,VALID,19.0963,VALID,137,VALID,1.84831,
2002-09-21, 03:24:01,VALID,917.356,VALID,0,VALID,99.4051,VALID,0.0849042,VALID,19.1095,VALID,140,VALID,1.80549,
2002-09-21, 03:25:01,VALID,917.336,VALID,0,VALID,99.3912,VALID,0.0509425,VALID,19.1087,VALID,143,VALID,2.00273,
2002-09-21, 03:26:00,VALID,917.311,VALID,0,VALID,99.3899,VALID,0.0849042,VALID,19.1122,VALID,147,VALID,2.08494,
2002-09-21, 03:27:00,VALID,917.287,VALID,0,VALID,99.3797,VALID,0.0679233,VALID,19.1388,VALID,141,VALID,2.05849,
2002-09-21, 03:28:00,VALID,917.297,VALID,0,VALID,99.3746,VALID,0.101885,VALID,19.1154,VALID,137,VALID,1.85916,
2002-09-21, 03:29:00,VALID,917.287,VALID,0,VALID,99.353,VALID,0.0849042,VALID,19.1293,VALID,142,VALID,2.46074,
2002-09-21, 03:30:01,VALID,917.282,VALID,0,VALID,99.3339,VALID,0.0849042,VALID,19.1219,VALID,151,VALID,2.02539,
2002-09-21, 03:31:00,VALID,917.293,VALID,0,VALID,99.3161,VALID,0.0849042,VALID,19.1288,VALID,147,VALID,2.44182,
2002-09-21, 03:32:01,VALID,917.286,VALID,0,VALID,99.3047,VALID,0.0169808,VALID,19.1296,VALID,145,VALID,2.20952,